EW9015 Weather Reports


time (UTC)temp
F
wind
direction
speed
knots
gust
knots
rain 1hr
in
rain 24hr
in
rain mn
in
humidity
%
barometer
mb
20260509043042 53 237 0.9 5.2 0.15 0.56 0.08 93 1011.8
20260509041606 53 239 0.0 2.6 0.15 0.52 0.05 92 1011.8
20260509040018 53 276 0.9 3.5 0.14 0.48 0.00 92 1011.9
20260509034552 53 291 1.7 3.5 0.12 0.44 0.44 92 1012.1
20260509033006 53 348 0.9 3.5 0.10 0.40 0.41 92 1012.2
20260509031549 53 310 1.7 4.3 0.08 0.37 0.37 92 1012.2
20260509030007 53 310 2.6 7.0 0.07 0.34 0.34 92 1012.5
20260509024604 53 324 0.9 4.3 0.08 0.32 0.32 91 1012.5
20260509023005 53 285 1.7 3.5 0.10 0.30 0.30 91 1012.4
20260509021556 53 289 1.7 7.0 0.14 0.28 0.28 91 1012.4
20260509020028 53 293 2.6 7.0 0.15 0.27 0.27 91 1012.3
20260509014603 54 310 3.5 7.0 0.17 0.24 0.24 90 1012.5
20260509013033 54 285 2.6 6.1 0.16 0.20 0.20 89 1012.3
20260509011604 54 309 0.9 4.3 0.12 0.15 0.15 88 1012.1
20260509010009 54 30 2.6 7.0 0.08 0.11 0.11 88 1012.0
20260509004553 54 41 2.6 5.2 0.04 0.06 0.06 87 1011.9
20260509003006 54 66 1.7 4.3 0.03 0.04 0.04 85 1011.4
20260509001554 55 48 2.6 7.8 0.03 0.03 0.03 84 1011.6
20260509000008 55 79 2.6 4.3 0.03 0.03 0.03 82 1011.7
20260508234600 56 54 0.9 4.3 0.02 0.02 0.02 79 1011.8
20260508233006 56 17 3.5 5.2 0.01 0.01 0.01 75 1011.8
20260508231551 57 345 4.3 11.3 0.00 0.00 0.00 73 1012.0
20260508230009 59 42 4.3 9.6 0.00 0.00 0.00 69 1011.7
20260508224558 60 33 4.3 8.7 0.00 0.00 0.00 65 1011.4
20260508223022 61 354 2.6 5.2 0.00 0.00 0.00 62 1011.5
20260508221600 61 293 2.6 7.0 0.00 0.00 0.00 59 1011.2
20260508220027 61 287 3.5 11.3 0.00 0.00 0.00 54 1011.3
20260508214603 62 312 4.3 12.2 0.00 0.00 0.00 55 1011.2
20260508213029 62 281 1.7 5.2 0.00 0.00 0.00 56 1011.2
20260508211519 62 282 2.6 4.3 0.00 0.00 0.00 55 1011.2
20260508210035 63 268 1.7 6.1 0.00 0.00 0.00 54 1011.1
20260508204506 63 264 1.7 11.3 0.00 0.00 0.00 53 1011.3
20260508203037 63 294 4.3 8.7 0.00 0.00 0.00 51 1011.5
20260508201511 63 301 6.1 12.2 0.00 0.00 0.00 51 1011.9
20260508200044 63 282 1.7 8.7 0.00 0.00 0.00 51 1011.9
20260508194515 63 261 7.0 12.2 0.00 0.00 0.00 49 1012.4
20260508193051 63 254 7.8 15.6 0.00 0.00 0.00 49 1012.7
20260508191529 63 281 4.3 9.6 0.00 0.00 0.00 50 1012.8
20260508190107 63 264 6.1 11.3 0.00 0.00 0.00 49 1013.0
20260508184531 63 295 3.5 10.4 0.00 0.00 0.00 50 1013.1
20260508183049 62 319 4.3 13.0 0.00 0.00 0.00 51 1013.2
20260508181519 62 305 5.2 16.5 0.00 0.00 0.00 51 1013.5
20260508180052 63 287 10.4 15.6 0.00 0.00 0.00 48 1013.7
20260508174538 64 251 5.2 14.8 0.00 0.00 0.00 51 1013.7
20260508173049 62 295 7.8 17.4 0.00 0.00 0.00 52 1014.0
20260508171540 61 271 8.7 13.0 0.00 0.00 0.00 51 1014.4
20260508170145 61 307 8.7 14.8 0.00 0.00 0.00 52 1014.8
20260508164527 60 311 5.2 14.8 0.00 0.00 0.00 53 1014.9
20260508163101 60 295 7.8 13.9 0.00 0.00 0.00 54 1015.2
20260508161550 59 296 7.0 13.0 0.00 0.00 0.00 54 1015.4
20260508160042 60 288 7.8 13.9 0.00 0.00 0.00 53 1015.5
20260508154528 60 292 10.4 16.5 0.00 0.00 0.00 53 1015.6
20260508153100 60 270 9.6 15.6 0.00 0.00 0.00 53 1015.5
20260508151517 59 274 12.2 19.1 0.00 0.00 0.00 53 1015.7
20260508150038 58 272 7.0 15.6 0.00 0.00 0.00 55 1015.6
20260508144509 58 336 7.8 16.5 0.00 0.00 0.00 55 1015.9
20260508143056 57 276 7.8 15.6 0.00 0.00 0.00 56 1015.9
20260508141506 56 263 10.4 17.4 0.00 0.00 0.00 56 1016.1
20260508140034 55 289 7.0 16.5 0.00 0.00 0.00 58 1016.1
20260508134606 54 299 5.2 17.4 0.00 0.00 0.00 59 1016.1
20260508133013 53 305 8.7 17.4 0.00 0.00 0.00 59 1016.1
20260508131553 52 292 6.1 14.8 0.00 0.00 0.00 61 1016.4
20260508130004 51 289 6.1 14.8 0.00 0.00 0.00 62 1016.4
20260508124535 50 314 7.0 13.9 0.00 0.00 0.00 63 1016.3
20260508123055 49 267 5.2 10.4 0.00 0.00 0.00 68 1016.2
20260508121537 48 233 3.5 9.6 0.00 0.00 0.00 71 1016.1
20260508120111 47 266 1.7 5.2 0.00 0.00 0.00 74 1016.1
20260508114532 46 274 0.9 4.3 0.00 0.00 0.00 75 1016.1
20260508113102 45 253 0.9 3.5 0.00 0.00 0.00 75 1016.0
20260508111540 45 245 0.0 2.6 0.00 0.00 0.00 74 1016.0
20260508110104 45 237 0.0 2.6 0.00 0.00 0.00 73 1016.0
20260508104537 45 233 0.0 2.6 0.00 0.00 0.00 72 1015.9
20260508103057 46 227 0.0 1.7 0.00 0.00 0.00 71 1016.0
20260508101511 46 243 0.0 1.7 0.00 0.00 0.00 70 1015.9
20260508100057 47 241 0.9 3.5 0.00 0.00 0.00 69 1015.8
20260508094505 47 238 0.9 3.5 0.00 0.00 0.00 69 1015.8
20260508093039 48 235 0.9 6.1 0.00 0.00 0.00 68 1016.0
20260508091514 48 285 0.9 4.3 0.00 0.00 0.00 66 1016.1
20260508090042 48 296 3.5 7.0 0.00 0.00 0.00 65 1016.2
20260508084504 48 285 2.6 7.8 0.00 0.00 0.00 64 1016.2
20260508083036 49 280 3.5 7.8 0.00 0.00 0.00 63 1016.1
20260508081502 49 266 4.3 8.7 0.00 0.00 0.00 62 1016.1
20260508080031 49 324 2.6 9.6 0.00 0.00 0.00 61 1016.1
20260508074501 49 288 1.7 8.7 0.00 0.00 0.00 61 1015.9
20260508073041 49 244 2.6 10.4 0.00 0.00 0.00 59 1016.2
20260508071504 50 288 4.3 10.4 0.00 0.00 0.00 59 1016.1
20260508070032 50 18 6.1 11.3 0.00 0.00 0.00 58 1016.0
20260508064506 49 312 5.2 11.3 0.00 0.00 0.00 58 1016.3
20260508063034 49 299 1.7 8.7 0.00 0.00 0.00 59 1016.5
20260508061520 49 270 3.5 7.8 0.00 0.00 0.00 58 1016.6
20260508060054 49 266 2.6 8.7 0.00 0.00 0.00 58 1016.7
20260508054518 49 293 3.5 11.3 0.00 0.00 0.00 59 1016.6
20260508053046 50 264 4.3 8.7 0.00 0.00 0.00 58 1016.6
20260508051504 50 268 4.3 8.7 0.00 0.00 0.00 57 1016.7
20260508050040 50 283 5.2 11.3 0.00 0.00 0.00 56 1016.9
20260508044605 50 272 3.5 8.7 0.00 0.00 0.00 57 1016.8